GW6757 Weather Reports


Display with metric or nautical units.
time (UTC)temp
F
wind
direction
speed
MPH
gust
MPH
rain 1hr
in
rain 24hr
in
rain mn
in
humidity
%
barometer
mb
20260503024655 78 100 2.0 2.0 0.00 0.00 0.00 91 1016.8
20260503024153 78 97 2.0 3.0 0.00 0.00 0.00 91 1016.9
20260503023650 78 112 1.0 2.0 0.00 0.00 0.00 91 1016.7
20260503023147 78 101 1.0 2.0 0.00 0.00 0.00 90 1016.8
20260503022643 78 119 1.0 2.0 0.00 0.00 0.00 90 1016.7
20260503022142 78 106 1.0 2.0 0.00 0.00 0.00 90 1016.5
20260503021640 78 100 1.0 2.0 0.00 0.00 0.00 90 1016.5
20260503021136 78 104 2.0 2.0 0.00 0.00 0.00 90 1016.5
20260503020633 78 96 1.0 2.0 0.00 0.00 0.00 90 1016.5
20260503020131 78 98 1.0 2.0 0.00 0.00 0.00 89 1016.6
20260503015628 78 88 2.0 2.0 0.00 0.00 0.00 89 1016.3
20260503015125 78 99 1.0 2.0 0.00 0.00 0.00 89 1016.3
20260503014620 78 86 0.0 2.0 0.00 0.00 0.00 89 1016.4
20260503014118 78 101 1.0 3.0 0.00 0.00 0.00 89 1016.2
20260503013615 78 104 2.0 2.0 0.00 0.00 0.00 89 1016.1
20260503013113 78 89 0.0 3.0 0.00 0.00 0.00 89 1016.1
20260503012610 78 107 0.0 2.0 0.00 0.00 0.00 88 1016.0
20260503012107 78 58 1.0 2.0 0.00 0.00 0.00 88 1016.0
20260503011603 78 116 1.0 2.0 0.00 0.00 0.00 88 1015.8
20260503011101 78 118 2.0 3.0 0.00 0.00 0.00 88 1015.9
20260503010556 78 92 0.0 3.0 0.00 0.00 0.00 88 1015.7
20260503010054 78 111 2.0 2.0 0.00 0.00 0.00 87 1015.9
20260503005551 78 98 1.0 3.0 0.00 0.00 0.00 87 1015.8
20260503005049 78 69 1.0 3.0 0.00 0.00 0.00 87 1015.6
20260503004544 79 133 2.0 3.0 0.00 0.00 0.00 87 1015.6
20260503004043 79 98 2.0 3.0 0.00 0.00 0.00 86 1015.4
20260503003539 79 127 1.0 3.0 0.00 0.00 0.00 86 1015.3
20260503003037 79 119 2.0 2.0 0.00 0.00 0.00 85 1015.4
20260503002533 79 128 1.0 2.0 0.00 0.00 0.00 85 1015.2
20260503002030 79 99 2.0 2.0 0.00 0.00 0.00 85 1015.2
20260503001526 79 121 2.0 2.0 0.00 0.00 0.00 84 1015.1
20260503001024 79 104 1.0 3.0 0.00 0.00 0.00 84 1014.9
20260503000521 80 109 2.0 3.0 0.00 0.00 0.00 84 1014.9
20260503000018 80 100 2.0 3.0 0.00 0.00 0.00 83 1014.8
20260502235514 80 102 2.0 3.0 0.00 0.00 0.00 83 1014.9
20260502235013 80 121 2.0 2.0 0.00 0.00 0.00 82 1014.6
20260502234509 80 92 2.0 3.0 0.00 0.00 0.00 82 1014.5
20260502234006 80 114 2.0 3.0 0.00 0.00 0.00 81 1014.5
20260502233506 81 124 3.0 3.0 0.00 0.00 0.00 81 1014.7
20260502233004 81 100 2.0 4.0 0.00 0.00 0.00 81 1014.5
20260502232500 81 104 2.0 3.0 0.00 0.00 0.00 80 1014.3
20260502231957 82 92 2.0 2.0 0.00 0.00 0.00 80 1014.2
20260502231454 82 132 3.0 4.0 0.00 0.00 0.00 79 1014.0
20260502230952 82 107 1.0 5.0 0.00 0.00 0.00 79 1014.0
20260502230450 83 91 2.0 5.0 0.00 0.00 0.00 78 1014.0
20260502225948 83 95 4.0 4.0 0.00 0.00 0.00 77 1013.9
20260502225443 83 125 4.0 6.0 0.00 0.00 0.00 77 1013.9
20260502224941 84 104 3.0 7.0 0.00 0.00 0.00 76 1013.8
20260502224437 84 98 2.0 5.0 0.00 0.00 0.00 76 1013.7
20260502223933 85 107 4.0 6.0 0.00 0.00 0.00 76 1013.8
20260502223432 85 99 3.0 6.0 0.00 0.00 0.00 75 1013.9
20260502222930 85 160 3.0 6.0 0.00 0.00 0.00 74 1013.7
20260502222427 85 136 6.0 7.0 0.00 0.00 0.00 72 1013.6
20260502221922 86 122 2.0 4.0 0.00 0.00 0.00 73 1013.7
20260502221419 86 116 5.0 5.0 0.00 0.00 0.00 73 1013.7
20260502220916 86 132 2.0 7.0 0.00 0.00 0.00 73 1013.7
20260502220411 87 140 2.0 8.0 0.00 0.00 0.00 72 1013.5
20260502215908 86 126 1.0 6.0 0.00 0.00 0.00 73 1013.5
20260502215406 87 194 5.0 7.0 0.00 0.00 0.00 72 1013.5
20260502214903 86 192 1.0 5.0 0.00 0.00 0.00 73 1013.5
20260502214359 86 180 1.0 7.0 0.00 0.00 0.00 73 1013.4
20260502213856 86 186 2.0 6.0 0.00 0.00 0.00 72 1013.4
20260502213353 86 201 3.0 7.0 0.00 0.00 0.00 72 1013.2
20260502212852 86 141 5.0 7.0 0.00 0.00 0.00 73 1013.2
20260502212351 86 160 5.0 8.0 0.00 0.00 0.00 72 1013.3
20260502211847 86 168 6.0 8.0 0.00 0.00 0.00 72 1013.2
20260502211343 87 155 3.0 6.0 0.00 0.00 0.00 73 1013.3
20260502210841 87 190 5.0 8.0 0.00 0.00 0.00 72 1013.2
20260502210337 87 184 3.0 6.0 0.00 0.00 0.00 72 1013.2
20260502205835 87 197 5.0 9.0 0.00 0.00 0.00 72 1013.3
20260502205331 86 184 4.0 9.0 0.00 0.00 0.00 72 1013.2
20260502204828 87 169 5.0 7.0 0.00 0.00 0.00 72 1013.2
20260502204325 87 167 6.0 7.0 0.00 0.00 0.00 71 1013.3
20260502203822 87 141 3.0 6.0 0.00 0.00 0.00 72 1013.3
20260502203320 87 172 2.0 11.0 0.00 0.00 0.00 71 1013.1
20260502202820 87 170 3.0 8.0 0.00 0.00 0.00 71 1013.3
20260502202318 87 205 7.0 8.0 0.00 0.00 0.00 71 1013.3
20260502201816 87 178 7.0 9.0 0.00 0.00 0.00 70 1013.2
20260502201312 87 163 4.0 11.0 0.00 0.00 0.00 70 1013.1
20260502200808 87 179 1.0 11.0 0.00 0.00 0.00 71 1013.3
20260502200304 87 114 2.0 9.0 0.00 0.00 0.00 71 1013.3
20260502195803 87 203 9.0 11.0 0.00 0.00 0.00 71 1013.4
20260502195259 88 173 7.0 11.0 0.00 0.00 0.00 70 1013.4
20260502194755 88 122 3.0 10.0 0.00 0.00 0.00 70 1013.4
20260502194253 88 189 5.0 9.0 0.00 0.00 0.00 70 1013.3
20260502193748 88 208 6.0 9.0 0.00 0.00 0.00 71 1013.6
20260502193246 87 183 4.0 11.0 0.00 0.00 0.00 70 1013.5
20260502192746 87 137 3.0 11.0 0.00 0.00 0.00 72 1013.5
20260502192244 88 186 4.0 12.0 0.00 0.00 0.00 70 1013.6
20260502191740 87 183 5.0 10.0 0.00 0.00 0.00 71 1013.6
20260502191238 87 215 7.0 11.0 0.00 0.00 0.00 70 1013.6
20260502190735 88 172 7.0 11.0 0.00 0.00 0.00 71 1013.6
20260502190233 88 177 7.0 12.0 0.00 0.00 0.00 71 1013.5
20260502185732 88 190 4.0 12.0 0.00 0.00 0.00 71 1013.4
20260502185229 89 104 4.0 10.0 0.00 0.00 0.00 71 1013.6
20260502184725 89 184 5.0 11.0 0.00 0.00 0.00 71 1013.7
20260502184221 89 143 7.0 10.0 0.00 0.00 0.00 71 1013.8
20260502183718 89 152 5.0 11.0 0.00 0.00 0.00 70 1013.9
20260502183214 88 157 2.0 4.0 0.00 0.00 0.00 72 1014.0
20260502182709 88 171 6.0 9.0 0.00 0.00 0.00 72 1014.0
20260502182205 87 141 4.0 7.0 0.00 0.00 0.00 74 1014.1
20260502181703 86 135 6.0 9.0 0.00 0.00 0.00 75 1014.1
20260502181202 87 132 6.0 11.0 0.00 0.00 0.00 71 1014.2
20260502180658 87 107 1.0 8.0 0.00 0.00 0.00 73 1014.2
20260502180155 87 145 3.0 6.0 0.00 0.00 0.00 73 1014.2
20260502170120 86 112 5.0 9.0 0.00 0.00 0.00 73 1014.6
20260502164107 86 119 6.0 15.0 0.00 0.00 0.00 70 1014.9
20260502163603 86 109 2.0 13.0 0.00 0.00 0.00 72 1015.0
20260502163059 86 153 2.0 7.0 0.00 0.00 0.00 74 1014.8
20260502162556 85 132 7.0 9.0 0.00 0.00 0.00 73 1015.0
20260502162053 84 134 4.0 10.0 0.00 0.00 0.00 73 1015.0
20260502161550 85 77 3.0 11.0 0.00 0.00 0.00 72 1014.9
20260502161048 85 132 9.0 11.0 0.00 0.00 0.00 72 1015.2
20260502160545 85 126 3.0 11.0 0.00 0.00 0.00 74 1015.0
20260502151953 82 124 12.0 14.0 0.00 0.00 0.00 80 1015.5
20260502151449 82 118 8.0 11.0 0.00 0.00 0.00 81 1015.5
20260502150946 82 119 5.0 13.0 0.00 0.00 0.00 81 1015.5
20260502150444 82 105 6.0 15.0 0.00 0.00 0.00 81 1015.3
20260502130329 82 116 11.0 12.0 0.00 0.00 0.00 82 1015.5
20260502123814 82 101 7.0 13.0 0.00 0.00 0.00 84 1015.5
20260502123311 82 102 6.0 11.0 0.00 0.00 0.00 85 1015.4
20260502122808 82 104 6.0 13.0 0.00 0.00 0.00 85 1015.3
20260502122306 81 110 6.0 11.0 0.00 0.00 0.00 86 1015.1
20260502121803 81 96 2.0 10.0 0.00 0.00 0.00 86 1015.3
20260502121300 81 130 4.0 6.0 0.00 0.00 0.00 86 1014.9
20260502120757 81 84 2.0 12.0 0.00 0.00 0.00 86 1015.1
20260502120253 81 107 4.0 6.0 0.00 0.00 0.00 87 1014.9
20260502115751 81 97 5.0 9.0 0.00 0.00 0.00 87 1015.1
20260502115248 80 129 6.0 8.0 0.00 0.00 0.00 88 1015.0
20260502114743 80 120 6.0 13.0 0.00 0.00 0.00 88 1014.9
20260502114241 80 145 5.0 8.0 0.00 0.00 0.00 88 1015.2
20260502113738 80 124 4.0 7.0 0.00 0.00 0.00 89 1015.1
20260502113236 79 118 5.0 10.0 0.00 0.00 0.00 89 1015.2
20260502112734 79 104 3.0 10.0 0.00 0.00 0.00 89 1015.1
20260502112231 79 113 3.0 8.0 0.00 0.00 0.00 90 1015.1
20260502111728 78 68 2.0 7.0 0.00 0.00 0.00 90 1015.3
20260502111226 78 145 4.0 6.0 0.00 0.00 0.00 90 1015.0
20260502110723 78 141 3.0 8.0 0.00 0.00 0.00 91 1015.0
20260502110220 77 107 3.0 5.0 0.00 0.00 0.00 91 1014.9
20260502105718 77 139 2.0 6.0 0.00 0.00 0.00 91 1014.8
20260502105214 77 122 3.0 5.0 0.00 0.00 0.00 91 1014.6
20260502104712 76 103 2.0 7.0 0.00 0.00 0.00 91 1014.5
20260502104209 76 118 3.0 6.0 0.00 0.00 0.00 91 1014.6
20260502103707 76 100 7.0 8.0 0.00 0.00 0.00 91 1014.6
20260502103205 76 110 3.0 5.0 0.00 0.00 0.00 91 1014.7
20260502102701 76 104 4.0 5.0 0.00 0.00 0.00 91 1014.5
20260502102158 76 124 5.0 6.0 0.00 0.00 0.00 91 1014.7
20260502101656 76 136 4.0 5.0 0.00 0.00 0.00 91 1014.6
20260502101154 76 119 4.0 6.0 0.00 0.00 0.00 91 1014.6
20260502100652 76 114 2.0 5.0 0.00 0.00 0.00 91 1014.6
20260502100150 76 120 4.0 7.0 0.00 0.00 0.00 91 1014.7
20260502091124 76 72 2.0 6.0 0.00 0.00 0.00 91 1014.3
20260502090621 76 120 4.0 8.0 0.00 0.00 0.00 91 1014.2
20260502090118 76 93 2.0 6.0 0.00 0.00 0.00 91 1014.1
20260502071516 76 110 4.0 5.0 0.00 0.00 0.00 91 1014.2
20260502071014 76 101 6.0 6.0 0.00 0.00 0.00 90 1014.1
20260502070511 76 112 5.0 6.0 0.00 0.00 0.00 90 1014.1
20260502070009 76 101 5.0 6.0 0.00 0.00 0.00 90 1014.0
20260502065508 76 121 3.0 6.0 0.00 0.00 0.00 90 1014.1
20260502065005 76 105 5.0 7.0 0.00 0.00 0.00 90 1013.9
20260502064503 76 124 4.0 6.0 0.00 0.00 0.00 90 1013.9
20260502064000 76 109 4.0 6.0 0.00 0.00 0.00 90 1013.9
20260502063458 76 110 4.0 6.0 0.00 0.00 0.00 90 1013.8
20260502062955 76 80 2.0 6.0 0.00 0.00 0.00 90 1014.1
20260502062452 76 117 3.0 6.0 0.00 0.00 0.00 90 1014.0
20260502061951 76 127 6.0 6.0 0.00 0.00 0.00 90 1014.1
20260502061449 76 123 3.0 7.0 0.00 0.00 0.00 90 1014.0
20260502060944 76 120 4.0 6.0 0.00 0.00 0.00 90 1014.0
20260502060439 76 137 4.0 6.0 0.00 0.00 0.00 90 1014.1
20260502055937 76 132 6.0 6.0 0.00 0.00 0.00 90 1014.1
20260502055435 76 78 4.0 6.0 0.00 0.00 0.00 90 1014.3
20260502054934 76 97 4.0 5.0 0.00 0.00 0.00 89 1014.2
20260502054432 76 126 5.0 6.0 0.00 0.00 0.00 89 1014.4
20260502053929 76 116 3.0 9.0 0.00 0.00 0.00 89 1014.3
20260502053426 76 111 3.0 5.0 0.00 0.00 0.00 89 1014.4
20260502052924 76 77 2.0 5.0 0.00 0.00 0.00 89 1014.5
20260502052422 76 113 3.0 5.0 0.00 0.00 0.00 89 1014.7
20260502051920 76 107 3.0 6.0 0.00 0.00 0.00 89 1014.6
20260502051418 76 93 2.0 7.0 0.00 0.00 0.00 89 1014.6
20260502050914 76 87 2.0 4.0 0.00 0.00 0.00 89 1014.8
20260502050410 76 152 4.0 6.0 0.00 0.00 0.00 89 1014.8
20260502045908 76 93 2.0 5.0 0.00 0.00 0.00 89 1014.8
20260502045405 76 119 3.0 5.0 0.00 0.00 0.00 89 1015.0
20260502044902 76 116 4.0 8.0 0.00 0.00 0.00 89 1015.0
20260502044357 76 102 2.0 5.0 0.00 0.00 0.00 89 1015.1
20260502043855 76 138 4.0 5.0 0.00 0.00 0.00 89 1015.0
20260502043352 77 115 4.0 6.0 0.00 0.00 0.00 89 1014.9
20260502042851 77 94 2.0 5.0 0.00 0.00 0.00 88 1015.0
20260502042349 77 88 3.0 6.0 0.00 0.00 0.00 88 1015.0
20260502041846 77 130 3.0 5.0 0.00 0.00 0.00 88 1015.0
20260502041343 77 111 5.0 6.0 0.00 0.00 0.00 88 1014.9
20260502040841 77 118 3.0 6.0 0.00 0.00 0.00 88 1015.0
20260502040337 77 94 4.0 8.0 0.00 0.00 0.00 88 1015.2
20260502035833 77 108 6.0 7.0 0.00 0.00 0.00 88 1015.1
20260502035330 77 116 6.0 9.0 0.00 0.00 0.00 88 1014.9
20260502034828 77 104 6.0 7.0 0.00 0.00 0.00 88 1014.9
20260502034326 77 95 2.0 6.0 0.00 0.00 0.00 88 1015.0
20260502033824 77 97 4.0 10.0 0.00 0.00 0.00 88 1014.9
20260502033321 77 99 3.0 7.0 0.00 0.00 0.00 88 1015.1
20260502032818 77 98 2.0 4.0 0.00 0.00 0.00 88 1015.2
20260502032314 77 112 5.0 7.0 0.00 0.00 0.00 88 1015.1
20260502031812 77 80 3.0 6.0 0.00 0.00 0.00 87 1015.3
20260502031310 78 106 4.0 8.0 0.00 0.00 0.00 87 1015.0
20260502030808 78 98 4.0 9.0 0.00 0.00 0.00 87 1015.2
20260502030306 77 85 2.0 4.0 0.00 0.00 0.00 87 1015.1
20260502025803 77 128 2.0 7.0 0.00 0.00 0.00 87 1015.0
20260502025301 77 107 4.0 8.0 0.00 0.00 0.00 87 1015.1